STARLINK-31139 (58688 NORAD) Tracking and Keplerian Element Data

This shows tracking and keplerian element data for the satellite.

Feedback or suggestion? Click here.




ElementValue
Catalog58688
NameSTARLINK-31139
Epoch Orbit346
Epoch Day12.91667824
Epoch Year2024
RAAN204.0772
Inclination43.0005
Eccentricity0.0001665
Argument of Perigee247.7214
Mean Anonmoly357.8588
Mean Motion15.74179055
Decay Rate-0.01719936
L11 58688U 23211X 24012.91667824 -.01719936 00000+0 -13178-1 0 9994
L22 58688 43.0005 204.0772 0001665 247.7214 357.8588 15.74179055 3467



Live tracking and technical data element details for STARLINK-31139 (NORAD 58688). STARLINK-31139 can be tracked NOW for your location showing map with azimuth and elevation plus other details from your city location.







IsCatalogInMostPopularTable: catalog: 58688, numindb: 23
Update: records affected: 1



GetName: 58688 STARLINK-31139

Hit Count: updated at: Wed, 17 Apr 2024 03:21:57 GMT